Regional Weather Roundup
Issued by NWS

Home | Current Version | Previous Version | Text Only | Print | Product List | Glossary On
Versions: 1 2 3 4 5 6 7 8 9 10 11 12 13 14 15 16 17 18 19 20 21 22 23 24 25 26 27 28 29 30 31 32 33 34 35 36 37 38 39 40 41 42 43 44 45 46 47 48 49 50
171
ASUS43 KOAX 221002
RWRNE

WEATHER ROUNDUP FOR NEBRASKA
NATIONAL WEATHER SERVICE OMAHA NE
400 AM CST SUN JAN 22 2017

NOTES: SATELLITE DATA IS BEING USED TO AUGMENT CLOUD COVER ABOVE
       12000 FEET.
       "FAIR" INDICATES FEW OR NO CLOUDS BELOW 12,000 FEET WITH NO
       SIGNIFICANT WEATHER AND/OR OBSTRUCTIONS TO VISIBILITY.

  * THESE STATIONS DO NOT REPORT WEATHER SUCH AS RAIN...SNOW OR FOG.

NEZ001>004-019>022-054>056-221100-
NEBRASKA PANHANDLE

CITY           SKY/WX    TMP DP  RH WIND       PRES   REMARKS
SCOTTSBLUFF    CLEAR     24  20  84 NW8       29.76R WCI  15
ALLIANCE       CLEAR     20  18  92 NW7       29.73R WCI  11
CHADRON        CLEAR     20  18  92 SW6       29.76R WCI  12
KIMBALL        CLEAR     31  24  75 NW14      29.74R WCI  20
SIDNEY         CLOUDY    29  23  78 NW13      29.74R WCI  19
$$

NEZ057>060-069>072-079>082-221100-
SOUTHWEST NEBRASKA

CITY           SKY/WX    TMP DP  RH WIND       PRES   REMARKS
NORTH PLATTE   CLEAR     23  20  88 NW6       29.71R WCI  16
IMPERIAL       CLEAR     29  24  82 NW5       29.71R WCI  24
LEXINGTON      CLEAR     29  27  91 W8        29.69R WCI  21
MCCOOK         CLOUDY    28  26  92 W6        29.70R WCI  22
OGALLALA       CLEAR     25  24  93 W3        29.71S
$$

NEZ005>010-023>029-035>040-094-221100-
NORTH CENTRAL NEBRASKA

CITY           SKY/WX    TMP DP  RH WIND       PRES   REMARKS
VALENTINE      CLEAR     24  21  88 NW7       29.71R WCI  16
AINSWORTH      CLEAR     26  25  96 NW5       29.69R WCI  21
BROKEN BOW     CLEAR     33  29  85 N12       29.67R WCI  24
O`NEILL        CLOUDY    30  28  91 NW9       29.67R WCI  21
ORD            CLEAR     29  25  85 NW13      29.66R WCI  19
THEDFORD       CLEAR     26  24  93 W7        29.71R WCI  18
$$

NEZ041-046>049-061>064-073>077-083>087-221100-
SOUTH CENTRAL NEBRASKA

CITY           SKY/WX    TMP DP  RH WIND       PRES   REMARKS
GRAND ISLAND   CLEAR     28  28 100 NW5       29.67R WCI  23
AURORA         CLEAR     32  31  96 NW9       29.66R WCI  24
HASTINGS       CLOUDY    32  28  85 N7        29.68R WCI  26
HEBRON         CLEAR     34  34 100 NW9       29.64S WCI  26
HOLDREGE       CLOUDY    32  29  90 NW5       29.68R WCI  27
KEARNEY *      CLOUDY   N/A N/A N/A MISG        N/A
YORK           PTCLDY    32  32 100 N7        29.66R WCI  26
$$

NEZ011>018-030>034-042>045-221100-
NORTHEAST NEBRASKA

CITY           SKY/WX    TMP DP  RH WIND       PRES   REMARKS
NORFOLK        MOCLDY    28  26  92 NW12      29.64R FOG     WCI  18
ALBION         CLEAR     29  26  86 NW14      29.64S WCI  19
BLAIR          CLEAR     31  29  93 N10       29.63R FOG     WCI  22
FREMONT        CLEAR     29  29  99 NW3       29.65R
TEKAMAH        CLOUDY    31  28  89 N9        29.66S FOG     WCI  23
WAYNE          CLOUDY    31  30  96 N14G21    29.64S WCI  21
$$

NEZ050>053-065>068-078-088>093-221100-
SOUTHEAST NEBRASKA

CITY           SKY/WX    TMP DP  RH WIND       PRES   REMARKS
LINCOLN        CLEAR     28  28 100 CALM      29.67R
OMAHA EPPLEY   CLEAR     31  26  82 N10       29.64S WCI  22
BEATRICE       CLEAR     31  30  98 N7        29.63R WCI  24
FALLS CITY     CLOUDY    35  34  96 N6        29.60R WCI  30
NEBRASKA CITY  CLEAR     33  33 100 N8        29.63R FOG     WCI  26
PLATTSMOUTH    CLEAR     30  28  91 NW6       29.63R FOG     WCI  24
$$

NEZ044-045-051>053-067-221100-
OMAHA AREA

CITY           SKY/WX    TMP DP  RH WIND       PRES   REMARKS
OMAHA EPPLEY   CLEAR     31  26  82 N10       29.64S WCI  22
BLAIR          CLEAR     31  29  93 N10       29.63R FOG     WCI  22
FREMONT        CLEAR     29  29  99 NW3       29.65R
MILLARD        CLEAR     32  30  93 NW3       29.65R FOG
PLATTSMOUTH    CLEAR     30  28  91 NW6       29.63R FOG     WCI  24
WAHOO          FAIR      30  28  95 NW3       29.65R
$$




USA.gov is the U.S. government's official web portal to all federal, state and local government web resources and services.